Location: Campbell
(38.4118°N, 75.2377°W)
Time: 12:20:57
(UTC+00:00)

Daily predictions for brighter satellites

Satellite Brightness Start Highest point End
(mag) Time Altitude Azimuth Time Altitude Azimuth Time Altitude Azimuth
UNK 3.8 22:01:23 10° NNE 22:05:56 64° E 22:10:26 10° S
SAR-Lupe-4 4.5 22:05:38 10° SE 22:08:40 27° ENE 22:11:42 10° NNE
IGS 5A 3.3 22:07:08 10° SSE 22:11:05 87° ENE 22:15:03 10° N
Cosmos 1733 2.5 22:10:49 10° NNE 22:12:26 23° E 22:14:02 10° SE
Cosmos 1656 3.8 22:08:44 10° SSW 22:14:19 89° WNW 22:20:00 10° NNE
Cosmos 1634 Rocket 4.4 22:08:40 10° SSW 22:14:49 68° W 22:20:59 10° N
Intercosmos 24 3.6 22:11:42 10° N 22:15:26 64° E 22:18:57 10° SSE
Cosmos 1315 Rocket 4.4 22:13:04 10° SW 22:16:33 34° WNW 22:20:05 10° N
Cosmos 2297 Rocket 2.8 22:13:22 10° N 22:18:28 33° ENE 22:23:31 10° ESE
NOSS 3-2 (C) 3.1 22:13:51 10° SSW 22:18:33 60° ESE 22:24:00 10° NE
NOSS 3-2 (A) 3.9 22:15:29 10° SW 22:20:11 47° NW 22:25:41 10° NNE
COSMO-SKYMED 1 4.2 22:18:34 10° ENE 22:20:53 15° E 22:23:11 10° SE
Cosmos 1782 2.5 22:18:04 10° S 22:21:40 88° W 22:25:16 10° N
Cosmos 1602 Rocket 4.0 22:20:33 10° N 22:24:40 38° ENE 22:28:43 10° SSE
BREEZE M DEB (TANK) 3.0 22:22:19 10° WSW 22:25:14 35° NW 22:27:02 11° NE
MOS 1 Rocket 3.8 22:21:00 10° SE 22:25:21 38° ENE 22:29:59 10° N
Cosmos 405 Rocket 2.4 22:25:39 10° NNW 22:28:54 75° W 22:32:05 10° S
IRIDIUM 114 4.5 22:25:42 10° N 22:30:47 52° E 22:35:52 10° SSE
Cosmos 2279 Rocket 4.3 22:25:48 10° SSW 22:31:58 73° W 22:38:12 10° N
YAOGAN 1 3.9 22:29:50 10° ESE 22:32:35 17° ENE 22:35:19 10° NNE
Cosmos 1777 Rocket 4.0 22:28:44 10° S 22:33:57 76° ESE 22:39:13 10° NNE
SJ-12 3.6 22:34:32 10° SSE 22:38:14 63° ENE 22:41:59 10° N
IRIDIUM 103 4.3 22:34:47 10° N 22:39:59 64° E 22:45:09 10° SSE
USA 307 2.8 22:39:53 10° S 22:40:03 11° S 22:40:03 11° S
Cosmos 1933 3.5 22:37:05 10° SSE 22:40:43 43° E 22:44:23 10° NNE
Cosmos 1980 Rocket 3.4 22:36:43 10° SSE 22:40:48 21° E 22:43:08 16° ENE
IRS-P3 4.2 22:36:23 10° SSE 22:41:32 54° ENE 22:46:43 10° N
Cosmos 1570 Rocket 4.2 22:36:36 10° NNW 22:41:57 80° WSW 22:47:14 10° SSE
SJ-6F 4.4 22:39:47 10° SSE 22:43:36 51° ENE 22:47:28 10° N
ERS-1 4.4 22:40:04 10° SSE 22:45:05 70° ENE 22:50:03 10° N
CZ-4C R/B 3.3 22:46:23 10° NNW 22:53:14 43° NE 23:01:27 10° ESE
Aureole 1 Rocket 4.4 22:53:00 10° SE 22:55:25 19° ESE 22:55:25 19° ESE
Cosmos 2098 Rocket 4.2 22:54:16 10° SSW 22:57:45 39° WNW 23:01:50 10° N
IRIDIUM 106 4.4 22:53:03 10° N 22:58:18 85° W 23:03:30 10° S
Cosmos 1825 Rocket 3.8 22:54:48 10° N 22:58:58 44° E 23:03:04 10° SSE
Cosmos 2263 Rocket 3.6 22:55:46 10° N 22:58:57 18° NE 22:58:57 18° NE
USA 290 2.1 22:58:04 10° NNW 23:01:19 64° ENE 23:04:31 10° SSE
CZ-2D R/B 3.8 23:00:15 10° S 23:03:16 47° W 23:06:19 10° NNW
Cosmos-2242 4.5 23:00:39 10° SE 23:02:33 19° ESE 23:02:33 19° ESE
Helios 1A Rocket 3.1 23:05:52 33° ESE 23:05:52 33° ESE 23:08:47 10° SSE
ARIANE 5 R/B 3.1 23:01:05 10° S 23:06:01 59° WSW 23:11:03 10° NNW
Cosmos 773 Rocket 4.4 23:01:31 10° NNW 23:06:41 67° WSW 23:11:52 10° S
Cosmos 2058 Rocket 4.0 23:03:44 10° SSE 23:07:16 28° E 23:07:16 28° E
AQUARIUS 4.5 23:05:05 10° S 23:09:27 66° W 23:13:51 10° NNW
Cosmos 2227 Rocket 2.7 23:04:16 10° N 23:09:29 37° ENE 23:12:45 20° ESE
SPOT 1/Viking Rocket 3.5 23:04:41 10° SSE 23:09:50 67° ENE 23:15:00 10° N
Cosmos 2266 Rocket 4.1 23:07:37 10° N 23:13:47 79° W 23:19:48 10° S
Cosmos 1607 3.9 23:08:44 10° NNW 23:14:59 69° ENE 23:21:15 10° SE
Cosmos 990 Rocket 3.9 23:10:54 10° SSW 23:16:00 88° ESE 23:20:05 17° NNE
USA 238 DEB 3.6 23:12:18 10° S 23:18:00 51° ESE 23:20:47 31° ENE
USA 238 3.6 23:12:24 10° S 23:18:08 50° ESE 23:20:51 31° ENE
IRAS Rocket 4.3 23:13:02 10° SE 23:18:18 49° ENE 23:23:32 10° N
ATLAS CENTAUR R/B 0.7 23:17:08 10° NW 23:20:20 75° WSW 23:21:23 38° SSE
NOSS 2-3 (C) 2.8 23:19:01 10° SSW 23:22:33 66° ESE 23:22:41 65° ESE
Cosmos 1697 Rocket 2.9 23:16:59 10° SSW 23:22:33 72° WNW 23:27:11 16° NNE
BlueWalker 3 1.6 23:20:04 10° NW 23:23:42 81° NE 23:24:05 68° ESE
Cosmos 1553 Rocket 4.3 23:21:58 10° SSE 23:27:32 39° E 23:28:22 37° ENE
Cosmos 1606 Rocket 4.3 23:23:26 10° SSW 23:27:42 53° W 23:32:02 10° N
Cosmos 1461 4.4 23:26:41 10° WSW 23:30:06 29° NW 23:32:06 19° N
Gbstr 26 Del rocket 3.3 23:27:04 10° WSW 23:30:58 47° NW 23:31:38 41° N
Resurs 1-3 3.4 23:30:39 10° SSE 23:34:57 81° ENE 23:39:15 10° N
Meteor 1-26 Rocket 4.1 23:31:43 10° S 23:37:01 53° E 23:37:35 51° ENE
Cosmos 1076 Rocket 3.3 23:33:47 10° N 23:38:06 78° E 23:42:24 10° S
OceanSat 1 rocket 4.5 23:44:12 10° SSE 23:48:58 87° E 23:53:44 10° NNW
PSLV R/B 4.2 23:47:03 10° S 23:53:52 19° NNW 23:55:03 10° NNW
Cosmos 1244 Rocket 4.4 23:47:25 10° N 23:53:39 62° E 23:59:46 10° SSE
